CFG2JK LIRF-EDDF

Flight info

Callsign CFG2JK
Flight time 1h 21m
Altitude 36000
Route SOVAN DCT AMTEL DCT BORMI DCT OZE DCT NAXAV DCT UNIMI L12 MOGTI Q163 OLASO/N0407F320 Q163 HAFUN/N0358F240 Q163 ETASA T163 SPESA SPESA4B
Aircraft A320/M-SDE3FGHIRWY/LB1

Departure

Time 2026-05-05 20:03
Airport Rome–Fiumicino Leonardo da Vinci International Airport (LIRF)

Arrival

Time 2026-05-05 21:25
Airport Frankfurt Main Airport (EDDF)
Time Latitude Longitude Altitude Speed Heading
2026-05-05 19:26 41.79509 12.26133 14 ft 0 kts 115°
2026-05-05 19:49 41.79521 12.26101 15 ft 5 kts 116°
2026-05-05 19:49 41.79530 12.26075 16 ft 4 kts 111°
2026-05-05 19:49 41.79534 12.26053 15 ft 2 kts 60°
2026-05-05 19:49 41.79527 12.26042 15 ft 2 kts 27°
2026-05-05 19:50 41.79517 12.26035 19 ft 0 kts 25°
2026-05-05 19:54 41.79519 12.26036 14 ft 1 kts 25°
2026-05-05 19:54 41.79526 12.26041 14 ft 1 kts 25°
2026-05-05 19:55 41.79535 12.26046 14 ft 4 kts 25°
2026-05-05 19:55 41.79581 12.26075 14 ft 10 kts 24°
2026-05-05 19:55 41.79651 12.26119 15 ft 11 kts 25°
2026-05-05 19:55 41.79718 12.26147 14 ft 9 kts 353°
2026-05-05 19:56 41.79763 12.26075 14 ft 14 kts 295°
2026-05-05 19:56 41.79817 12.25920 15 ft 20 kts 295°
2026-05-05 19:56 41.79879 12.25829 14 ft 11 kts
2026-05-05 19:56 41.79944 12.25867 16 ft 10 kts 25°
2026-05-05 19:57 41.80006 12.25905 14 ft 10 kts 24°
2026-05-05 19:57 41.80070 12.25945 14 ft 10 kts 25°
2026-05-05 19:57 41.80133 12.25983 16 ft 10 kts 24°
2026-05-05 19:57 41.80198 12.26023 14 ft 11 kts 24°
2026-05-05 19:58 41.80269 12.26066 15 ft 12 kts 24°
2026-05-05 19:58 41.80348 12.26117 16 ft 13 kts 25°
2026-05-05 19:58 41.80432 12.26167 16 ft 13 kts 20°
2026-05-05 19:58 41.80508 12.26186 18 ft 7 kts 27°
2026-05-05 19:59 41.80529 12.26242 16 ft 8 kts 70°
2026-05-05 19:59 41.80536 12.26266 17 ft 9 kts 69°
2026-05-05 19:59 41.80543 12.26292 16 ft 10 kts 69°
2026-05-05 19:59 41.80574 12.26405 16 ft 16 kts 70°
2026-05-05 20:00 41.80619 12.26570 16 ft 21 kts 70°
2026-05-05 20:00 41.80673 12.26767 15 ft 24 kts 70°
2026-05-05 20:00 41.80721 12.26942 16 ft 21 kts 71°
2026-05-05 20:00 41.80778 12.27042 13 ft 16 kts 13°
2026-05-05 20:01 41.80879 12.27008 13 ft 14 kts 340°
2026-05-05 20:01 41.80939 12.26977 13 ft 12 kts 338°
2026-05-05 20:01 41.80959 12.26961 13 ft 1 kts 316°
2026-05-05 20:02 41.80960 12.26949 13 ft 4 kts 277°
2026-05-05 20:02 41.80959 12.26941 13 ft 0 kts 259°
2026-05-05 20:03 41.80902 12.26727 14 ft 64 kts 249°
2026-05-05 20:03 41.80666 12.25870 17 ft 130 kts 250°
2026-05-05 20:03 41.80289 12.24503 50 ft 178 kts 251°
2026-05-05 20:03 41.79906 12.22875 633 ft 183 kts 251°
2026-05-05 20:04 41.79642 12.21189 1234 ft 193 kts 252°
2026-05-05 20:04 41.79489 12.19396 2062 ft 197 kts 272°
2026-05-05 20:04 41.80038 12.17700 2879 ft 202 kts 301°
2026-05-05 20:04 41.80882 12.16181 3575 ft 208 kts 303°
2026-05-05 20:05 41.81791 12.14612 4217 ft 216 kts 304°
2026-05-05 20:05 41.82727 12.13020 4938 ft 219 kts 305°
2026-05-05 20:05 41.83700 12.11436 5648 ft 222 kts 312°
2026-05-05 20:05 41.84970 12.10207 6324 ft 232 kts 331°
2026-05-05 20:06 41.86564 12.09499 6690 ft 253 kts 343°
2026-05-05 20:06 41.88345 12.08850 7071 ft 277 kts 343°
2026-05-05 20:06 41.90228 12.08157 7750 ft 288 kts 342°
2026-05-05 20:06 41.92176 12.07437 8629 ft 293 kts 342°
2026-05-05 20:07 41.94151 12.06704 9565 ft 296 kts 342°
2026-05-05 20:07 41.96175 12.06079 10347 ft 306 kts 349°
2026-05-05 20:07 41.98386 12.05814 10649 ft 331 kts 353°
2026-05-05 20:07 42.00770 12.05580 10919 ft 354 kts 353°
2026-05-05 20:08 42.03266 12.05345 11516 ft 363 kts 353°
2026-05-05 20:08 42.05805 12.05110 12272 ft 368 kts 353°
2026-05-05 20:08 42.08371 12.04872 13063 ft 372 kts 353°
2026-05-05 20:08 42.10895 12.04633 13798 ft 376 kts 353°
2026-05-05 20:09 42.13514 12.04382 14471 ft 380 kts 353°
2026-05-05 20:09 42.16165 12.04125 15134 ft 384 kts 352°
2026-05-05 20:09 42.18838 12.03797 15781 ft 386 kts 348°
2026-05-05 20:09 42.21500 12.03201 16433 ft 390 kts 347°
2026-05-05 20:10 42.24191 12.02594 17081 ft 394 kts 347°
2026-05-05 20:10 42.26912 12.01981 17733 ft 398 kts 347°
2026-05-05 20:10 42.29654 12.01363 18372 ft 402 kts 347°
2026-05-05 20:10 42.32425 12.00740 18929 ft 406 kts 347°
2026-05-05 20:11 42.35180 12.00120 19480 ft 409 kts 347°
2026-05-05 20:11 42.38002 11.99479 20045 ft 413 kts 347°
2026-05-05 20:11 42.40846 11.98832 20606 ft 416 kts 347°
2026-05-05 20:11 42.43717 11.98181 21141 ft 420 kts 347°
2026-05-05 20:12 42.46612 11.97530 21674 ft 424 kts 347°
2026-05-05 20:12 42.49535 11.96876 22188 ft 427 kts 347°
2026-05-05 20:12 42.52476 11.96217 22692 ft 431 kts 347°
2026-05-05 20:12 42.55444 11.95548 23181 ft 434 kts 347°
2026-05-05 20:13 42.58432 11.94869 23652 ft 437 kts 347°
2026-05-05 20:13 42.61442 11.94183 24039 ft 440 kts 347°
2026-05-05 20:13 42.64473 11.93493 24436 ft 442 kts 347°
2026-05-05 20:13 42.67517 11.92803 24836 ft 444 kts 347°
2026-05-05 20:14 42.70572 11.92110 25237 ft 446 kts 346°
2026-05-05 20:14 42.73645 11.91411 25626 ft 448 kts 346°
2026-05-05 20:14 42.76723 11.90712 25999 ft 450 kts 346°
2026-05-05 20:14 42.79823 11.90006 26378 ft 452 kts 346°
2026-05-05 20:15 42.82875 11.89043 26749 ft 449 kts 337°
2026-05-05 20:15 42.85769 11.87486 27114 ft 445 kts 328°
2026-05-05 20:15 42.88460 11.85537 27479 ft 444 kts 326°
2026-05-05 20:15 42.91186 11.83535 27845 ft 446 kts 326°
2026-05-05 20:16 42.93923 11.81529 28193 ft 447 kts 326°
2026-05-05 20:16 42.96671 11.79518 28515 ft 449 kts 326°
2026-05-05 20:16 42.99424 11.77502 28833 ft 450 kts 326°
2026-05-05 20:16 43.02190 11.75476 29146 ft 452 kts 326°
2026-05-05 20:17 43.04964 11.73443 29456 ft 453 kts 326°
2026-05-05 20:17 43.07742 11.71405 29693 ft 454 kts 326°
2026-05-05 20:17 43.10528 11.69355 29998 ft 454 kts 326°
2026-05-05 20:17 43.13304 11.67312 30326 ft 453 kts 326°
2026-05-05 20:18 43.16076 11.65267 30622 ft 452 kts 325°
2026-05-05 20:18 43.18842 11.63229 30921 ft 452 kts 326°
2026-05-05 20:18 43.21763 11.61531 31198 ft 460 kts 335°
2026-05-05 20:18 43.24895 11.60460 31489 ft 468 kts 344°
2026-05-05 20:19 43.28141 11.59939 31776 ft 471 kts 347°
2026-05-05 20:19 43.31403 11.59463 32073 ft 471 kts 347°
2026-05-05 20:19 43.34654 11.58980 32377 ft 470 kts 346°
2026-05-05 20:19 43.37901 11.58493 32699 ft 469 kts 346°
2026-05-05 20:20 43.41145 11.58004 32972 ft 469 kts 346°
2026-05-05 20:20 43.44340 11.57520 33246 ft 468 kts 346°
2026-05-05 20:20 43.47578 11.57027 33539 ft 468 kts 346°
2026-05-05 20:20 43.50812 11.56535 33848 ft 467 kts 346°
2026-05-05 20:21 43.54035 11.56047 34154 ft 466 kts 346°
2026-05-05 20:21 43.57254 11.55564 34435 ft 465 kts 346°
2026-05-05 20:21 43.60468 11.55082 34714 ft 464 kts 346°
2026-05-05 20:21 43.63669 11.54597 34995 ft 462 kts 346°
2026-05-05 20:22 43.66863 11.54111 35280 ft 461 kts 346°
2026-05-05 20:22 43.70049 11.53622 35555 ft 460 kts 346°
2026-05-05 20:22 43.73230 11.53137 35829 ft 459 kts 346°
2026-05-05 20:22 43.76407 11.52654 36094 ft 458 kts 346°
2026-05-05 20:23 43.79569 11.52171 36347 ft 457 kts 346°
2026-05-05 20:23 43.82731 11.51691 36580 ft 457 kts 346°
2026-05-05 20:23 43.85890 11.51212 36817 ft 456 kts 346°
2026-05-05 20:23 43.89043 11.50731 37052 ft 455 kts 346°
2026-05-05 20:24 43.92149 11.50254 37265 ft 454 kts 346°
2026-05-05 20:24 43.95289 11.49771 37490 ft 454 kts 346°
2026-05-05 20:24 43.98425 11.49289 37692 ft 453 kts 346°
2026-05-05 20:24 44.01562 11.48809 37915 ft 453 kts 346°
2026-05-05 20:25 44.04693 11.48329 38002 ft 453 kts 346°
2026-05-05 20:25 44.10965 11.47363 38012 ft 453 kts 346°
2026-05-05 20:26 44.17243 11.46397 38011 ft 455 kts 347°
2026-05-05 20:26 44.23545 11.45425 38008 ft 456 kts 347°
2026-05-05 20:27 44.29852 11.44461 38001 ft 456 kts 347°
2026-05-05 20:27 44.36156 11.43479 38001 ft 456 kts 347°
2026-05-05 20:28 44.42470 11.42485 37997 ft 457 kts 347°
2026-05-05 20:28 44.48749 11.41504 37994 ft 457 kts 347°
2026-05-05 20:29 44.55083 11.40521 38000 ft 458 kts 347°
2026-05-05 20:29 44.61414 11.39529 38003 ft 458 kts 347°
2026-05-05 20:30 44.67753 11.38527 38013 ft 458 kts 347°
2026-05-05 20:30 44.74095 11.37526 38017 ft 459 kts 347°
2026-05-05 20:31 44.80438 11.36529 38025 ft 459 kts 348°
2026-05-05 20:31 44.86790 11.35532 38031 ft 459 kts 348°
2026-05-05 20:32 44.93147 11.34525 38027 ft 460 kts 348°
2026-05-05 20:32 44.99465 11.33518 38019 ft 460 kts 348°
2026-05-05 20:33 45.05837 11.32506 38012 ft 461 kts 348°
2026-05-05 20:33 45.12215 11.31498 38009 ft 461 kts 348°
2026-05-05 20:34 45.18533 11.30484 38010 ft 462 kts 348°
2026-05-05 20:34 45.24923 11.29454 38012 ft 462 kts 348°
2026-05-05 20:35 45.31320 11.28434 38013 ft 463 kts 348°
2026-05-05 20:35 45.37718 11.27412 38009 ft 464 kts 348°
2026-05-05 20:36 45.44186 11.26354 38005 ft 471 kts 348°
2026-05-05 20:36 45.50684 11.25301 38006 ft 475 kts 349°
2026-05-05 20:37 45.57288 11.24243 38003 ft 479 kts 349°
2026-05-05 20:37 45.63929 11.23169 38009 ft 482 kts 349°
2026-05-05 20:38 45.70602 11.22074 38012 ft 484 kts 349°
2026-05-05 20:38 45.77303 11.20983 38026 ft 485 kts 349°
2026-05-05 20:39 45.84017 11.19886 38021 ft 486 kts 349°
2026-05-05 20:39 45.90743 11.18784 38023 ft 487 kts 349°
2026-05-05 20:40 45.97482 11.17675 38027 ft 488 kts 349°
2026-05-05 20:40 46.04264 11.17202 38042 ft 494 kts
2026-05-05 20:41 46.11034 11.19174 38044 ft 498 kts 11°
2026-05-05 20:41 46.17789 11.21482 38047 ft 499 kts 10°
2026-05-05 20:42 46.24557 11.23773 38051 ft 500 kts 10°
2026-05-05 20:42 46.31347 11.26080 38054 ft 502 kts 10°
2026-05-05 20:43 46.38150 11.28400 37974 ft 503 kts 11°
2026-05-05 20:43 46.45013 11.30002 37978 ft 497 kts 356°
2026-05-05 20:44 46.51708 11.28548 37990 ft 486 kts 337°
2026-05-05 20:44 46.57902 11.24796 37983 ft 482 kts 331°
2026-05-05 20:45 46.67095 11.18866 37987 ft 482 kts 331°
2026-05-05 20:45 46.73226 11.14887 37982 ft 482 kts 331°
2026-05-05 20:46 46.79320 11.10821 37981 ft 481 kts 328°
2026-05-05 20:46 46.84214 11.06999 37964 ft 481 kts 329°
2026-05-05 20:47 46.90397 11.03138 37943 ft 484 kts 334°
2026-05-05 20:47 46.96633 10.99474 37941 ft 482 kts 333°
2026-05-05 20:48 47.03788 10.94925 37939 ft 484 kts 332°
2026-05-05 20:48 47.09911 10.90840 37921 ft 484 kts 331°
2026-05-05 20:49 47.15003 10.87445 37891 ft 484 kts 331°
2026-05-05 20:49 47.21144 10.83401 37898 ft 483 kts 331°
2026-05-05 20:50 47.27297 10.79363 37907 ft 484 kts 331°
2026-05-05 20:50 47.33457 10.75301 37918 ft 485 kts 331°
2026-05-05 20:51 47.39625 10.71216 37917 ft 486 kts 332°
2026-05-05 20:51 47.45901 10.67403 37930 ft 489 kts 334°
2026-05-05 20:52 47.52262 10.63819 37932 ft 489 kts 335°
2026-05-05 20:52 47.58618 10.60208 37935 ft 490 kts 334°
2026-05-05 20:53 47.64915 10.56520 37942 ft 490 kts 334°
2026-05-05 20:53 47.71240 10.52758 37944 ft 490 kts 334°
2026-05-05 20:54 47.77563 10.48999 37940 ft 489 kts 334°
2026-05-05 20:54 47.83897 10.45255 37941 ft 489 kts 334°
2026-05-05 20:55 47.90219 10.41514 37944 ft 489 kts 334°
2026-05-05 20:55 47.95474 10.38386 37944 ft 489 kts 334°
2026-05-05 20:56 48.02850 10.33988 37943 ft 488 kts 334°
2026-05-05 20:56 48.09164 10.30213 37941 ft 489 kts 334°
2026-05-05 20:57 48.15469 10.26422 37910 ft 489 kts 334°
2026-05-05 20:57 48.21548 10.22126 37889 ft 483 kts 323°
2026-05-05 20:58 48.26826 10.15972 37889 ft 481 kts 317°
2026-05-05 20:58 48.32028 10.09653 37888 ft 481 kts 317°
2026-05-05 20:59 48.37245 10.03316 37894 ft 483 kts 317°
2026-05-05 20:59 48.40738 9.99056 37901 ft 483 kts 317°
2026-05-05 21:00 48.47693 9.90550 37902 ft 484 kts 317°
2026-05-05 21:00 48.52925 9.84123 37898 ft 485 kts 317°
2026-05-05 21:01 48.58153 9.77685 37890 ft 485 kts 317°
2026-05-05 21:01 48.63350 9.71187 37886 ft 484 kts 316°
2026-05-05 21:02 48.68417 9.64498 37884 ft 483 kts 315°
2026-05-05 21:02 48.73356 9.57867 37558 ft 467 kts 315°
2026-05-05 21:03 48.75775 9.54638 37119 ft 460 kts 315°
2026-05-05 21:03 48.78171 9.51459 36654 ft 454 kts 315°
2026-05-05 21:03 48.80540 9.48330 36162 ft 449 kts 315°
2026-05-05 21:03 48.82886 9.45232 35683 ft 445 kts 315°
2026-05-05 21:04 48.85205 9.42162 35207 ft 440 kts 315°
2026-05-05 21:04 48.87500 9.39115 34732 ft 436 kts 315°
2026-05-05 21:04 48.89774 9.36094 34272 ft 433 kts 317°
2026-05-05 21:04 48.92208 9.33424 33765 ft 431 kts 327°
2026-05-05 21:05 48.94853 9.31312 33099 ft 428 kts 331°
2026-05-05 21:05 48.97510 9.29305 32453 ft 424 kts 331°
2026-05-05 21:05 49.00139 9.27315 31836 ft 419 kts 331°
2026-05-05 21:05 49.02701 9.25370 31247 ft 415 kts 332°
2026-05-05 21:06 49.05269 9.23416 30658 ft 411 kts 332°
2026-05-05 21:06 49.07814 9.21477 30093 ft 407 kts 332°
2026-05-05 21:06 49.09519 9.20175 29672 ft 404 kts 332°
2026-05-05 21:06 49.10333 9.19552 29475 ft 403 kts 332°
2026-05-05 21:07 49.12020 9.18260 29051 ft 400 kts 332°
2026-05-05 21:07 49.15303 9.15741 28394 ft 397 kts 333°
2026-05-05 21:07 49.20348 9.13479 27513 ft 393 kts 354°
2026-05-05 21:07 49.23148 9.13409 27041 ft 390 kts
2026-05-05 21:08 49.25843 9.13804 26578 ft 387 kts
2026-05-05 21:08 49.28519 9.14191 26135 ft 385 kts
2026-05-05 21:08 49.31171 9.14566 25699 ft 382 kts
2026-05-05 21:08 49.33811 9.14936 25182 ft 380 kts
2026-05-05 21:09 49.35551 9.15178 24775 ft 379 kts
2026-05-05 21:09 49.37385 9.15442 24357 ft 378 kts
2026-05-05 21:09 49.40033 9.15828 23748 ft 389 kts
2026-05-05 21:10 49.42749 9.16220 23068 ft 394 kts
2026-05-05 21:10 49.45491 9.16615 22333 ft 396 kts
2026-05-05 21:10 49.47674 9.16950 21835 ft 395 kts
2026-05-05 21:10 49.50421 9.17360 21124 ft 398 kts
2026-05-05 21:11 49.53187 9.17751 20435 ft 400 kts
2026-05-05 21:11 49.55962 9.18142 19757 ft 401 kts
2026-05-05 21:11 49.58743 9.18563 19099 ft 402 kts
2026-05-05 21:11 49.61529 9.18993 18455 ft 403 kts
2026-05-05 21:12 49.64298 9.19661 17769 ft 404 kts 15°
2026-05-05 21:12 49.66826 9.21407 17043 ft 395 kts 33°
2026-05-05 21:12 49.68878 9.24148 16340 ft 386 kts 46°
2026-05-05 21:12 49.70710 9.27121 15654 ft 379 kts 46°
2026-05-05 21:13 49.72726 9.29661 14984 ft 371 kts 30°
2026-05-05 21:13 49.75063 9.31225 14330 ft 362 kts 13°
2026-05-05 21:13 49.77496 9.32043 13691 ft 355 kts 10°
2026-05-05 21:13 49.79902 9.32806 12975 ft 349 kts
2026-05-05 21:14 49.82262 9.33490 12270 ft 339 kts
2026-05-05 21:14 49.84554 9.33190 11586 ft 325 kts 340°
2026-05-05 21:14 49.86500 9.31710 10923 ft 311 kts 319°
2026-05-05 21:14 49.87938 9.29328 10327 ft 297 kts 299°
2026-05-05 21:15 49.88877 9.26549 9744 ft 287 kts 293°
2026-05-05 21:15 49.89745 9.23813 9174 ft 278 kts 293°
2026-05-05 21:15 49.90587 9.21155 8611 ft 271 kts 293°
2026-05-05 21:15 49.91407 9.18568 8050 ft 265 kts 293°
2026-05-05 21:16 49.92212 9.16030 7494 ft 259 kts 293°
2026-05-05 21:16 49.92996 9.13557 6969 ft 252 kts 293°
2026-05-05 21:16 49.93757 9.11147 6470 ft 245 kts 293°
2026-05-05 21:16 49.94497 9.08801 6051 ft 238 kts 293°
2026-05-05 21:17 49.95221 9.06507 5717 ft 235 kts 293°
2026-05-05 21:17 49.95936 9.04238 5379 ft 233 kts 294°
2026-05-05 21:17 49.96751 9.02279 5091 ft 232 kts 308°
2026-05-05 21:17 49.97912 9.00611 4994 ft 222 kts 321°
2026-05-05 21:18 49.99105 8.99275 4995 ft 207 kts 320°
2026-05-05 21:18 50.00238 8.97988 4994 ft 196 kts 320°
2026-05-05 21:18 50.01304 8.96705 4995 ft 192 kts 312°
2026-05-05 21:18 50.02148 8.95132 4999 ft 189 kts 302°
2026-05-05 21:19 50.02923 8.93482 4998 ft 189 kts 303°
2026-05-05 21:19 50.03699 8.91852 4920 ft 185 kts 303°
2026-05-05 21:19 50.04207 8.90790 4706 ft 184 kts 303°
2026-05-05 21:19 50.04976 8.89184 4352 ft 186 kts 303°
2026-05-05 21:20 50.05908 8.86938 3892 ft 183 kts 288°
2026-05-05 21:20 50.06157 8.85031 3597 ft 179 kts 272°
2026-05-05 21:20 50.06248 8.83128 3369 ft 174 kts 272°
2026-05-05 21:20 50.06344 8.81271 3171 ft 171 kts 272°
2026-05-05 21:21 50.06438 8.79430 2967 ft 170 kts 272°
2026-05-05 21:21 50.06713 8.74013 2141 ft 169 kts 272°
2026-05-05 21:22 50.06182 8.67784 1623 ft 131 kts 248°
2026-05-05 21:23 50.05867 8.66466 1444 ft 130 kts 248°
2026-05-05 21:23 50.05551 8.65149 1246 ft 131 kts 248°
2026-05-05 21:23 50.05229 8.63818 1083 ft 132 kts 248°
2026-05-05 21:23 50.04914 8.62475 932 ft 133 kts 249°
2026-05-05 21:24 50.04599 8.61120 756 ft 133 kts 248°
2026-05-05 21:24 50.04284 8.59785 586 ft 133 kts 248°
2026-05-05 21:24 50.03950 8.58448 388 ft 132 kts 253°
2026-05-05 21:24 50.03668 8.57243 356 ft 96 kts 249°
2026-05-05 21:25 50.03496 8.56525 355 ft 47 kts 250°
2026-05-05 21:25 50.03441 8.56235 353 ft 21 kts 260°
2026-05-05 21:25 50.03442 8.56008 347 ft 25 kts 277°
2026-05-05 21:25 50.03474 8.55744 344 ft 13 kts 275°
2026-05-05 21:26 50.03481 8.55719 351 ft 4 kts 297°
2026-05-05 21:26 50.03520 8.55701 346 ft 5 kts
2026-05-05 21:26 50.03541 8.55714 352 ft 2 kts 31°
2026-05-05 21:26 50.03563 8.55772 348 ft 8 kts 66°
2026-05-05 21:27 50.03580 8.55841 356 ft 6 kts 70°
2026-05-05 21:27 50.03600 8.55925 353 ft 12 kts 70°
2026-05-05 21:27 50.03640 8.56091 357 ft 20 kts 70°
2026-05-05 21:27 50.03695 8.56320 357 ft 24 kts 70°
2026-05-05 21:28 50.03755 8.56574 361 ft 22 kts 68°
2026-05-05 21:28 50.03804 8.56781 354 ft 21 kts 68°
2026-05-05 21:28 50.03856 8.57001 360 ft 22 kts 69°
2026-05-05 21:28 50.03910 8.57220 363 ft 22 kts 70°
2026-05-05 21:29 50.03962 8.57440 367 ft 22 kts 70°
2026-05-05 21:29 50.04017 8.57670 367 ft 24 kts 69°
2026-05-05 21:29 50.04073 8.57898 368 ft 22 kts 70°
2026-05-05 21:29 50.04125 8.58106 370 ft 19 kts 61°
2026-05-05 21:30 50.04239 8.58205 368 ft 18 kts 12°
2026-05-05 21:30 50.04352 8.58169 369 ft 15 kts 343°
2026-05-05 21:30 50.04445 8.58111 366 ft 15 kts 339°
2026-05-05 21:30 50.04541 8.58056 364 ft 15 kts 340°
2026-05-05 21:31 50.04651 8.57992 360 ft 19 kts 339°
2026-05-05 21:31 50.04779 8.57918 364 ft 19 kts 340°
2026-05-05 21:31 50.04849 8.57834 358 ft 12 kts 299°
2026-05-05 21:31 50.04888 8.57756 358 ft 7 kts 349°
2026-05-05 21:32 50.04931 8.57778 359 ft 6 kts 21°
2026-05-05 21:32 50.04951 8.57790 358 ft 0 kts 22°